Location: Godzisko
(49.9648°N, 19.4576°E)
Time: 07:53:09
(UTC+00:00)

Cosmos 1898 Rocket - Pass Details

Date: 20 April 2021
Orbit: 753 x 784 km, 74.0° (Epoch: 07 May)

Event Time Altitude Azimuth Distance (km) Brightness Sun altitude
Exits shadow 02:08:04 20° 233° (SW) 1,705 4.6 -13.7°
Maximum altitude 02:11:27 49° 300° (WNW) 991 3.9 -13.3°
Drops below altitude 10° 02:16:36 10° 16° (NNE) 2,337 6.8 -12.6°
Sets 02:19:05 0° 22° (NNE) 3,273 7.8 -12.3°
